Powrót do katalogu

TIANQI 18

AktywnyŁącznośćLEO
NORAD 64060·PAYLOAD·🇨🇳 China

Wystrzelony May 19, 2025 z Yellow Sea Launch Area

Loading…

Następne Przeloty (najbliższe 24 godziny)

TLE

ŚwieżeSource: Space-Track

Epoka: Sep 14, 2026, 22:29 UTC

1 64060U 25105C   26257.93694780  .00000077  00000-0  14113-3 0  9994
2 64060  44.9865 342.9174 0009220 100.8941 259.2929 13.99161109 67764

Śledź TIANQI 18 w czasie rzeczywistym z AllMySat

Download on the App Store